FENGYUN 1C DEB

Satellite information

Favourite Embed

Satellite Type and Status

DEBRISIN ORBIT

Key statistics

Satellite FENGYUN 1C DEB at a glance.

Uptime

9715

Days in orbit

Revolutions

≈ 14.1

Per day

Orbit

SSO

Sun Synchronous Orbit

Inclination

98.3

Latest

Satellite identification and parameters

Extended collection of information and parameters for FENGYUN 1C DEB.

Object identification

Identified? True

Debris? True

Object name: FENGYUN 1C DEB

International designator: 1999-025CUU

Object number (NORAD): 32198

Object ID (CCSDS): 32198

Country: PEOPLES REPUBLIC OF CHINA (PRC)

Current information (Y/N): Y

RCS size: SMALL

Orbital parameters

Period: 102.212 minutes

Inclination: 98.3426 deg

SMA: 7241.507 km

Apoapsis: 932.367 km

Periapsis: 794.377 km

RAAN: 133.9993 deg

Eccentricy: 0.00952772

Argument of periapsis: 291.2322 deg

Mean anomaly: 67.8694 deg

Mean motion: 14.08832276 rev/day

Mean motion (dot): 0.00004623 rev/day2

B* drag term: 0.0025895328 1/REarth

Two-line elements (TLE)

Creation date: Dec. 13, 2025, 5:47 p.m.

Reference frame: TEME

Reference center: EARTH

Epoch: Dec. 13, 2025, 3:22 a.m. UTC

TLE line 0: 0 FENGYUN 1C DEB

TLE line 1: 1 32198U 99025CUU 25347.14094597 .00004623 00000-0 25895-2 0 9994

TLE line 2: 2 32198 98.3426 133.9993 0095277 291.2322 67.8694 14.08832276569512

Live tracking on map

Real-time ground track for satellite FENGYUN 1C DEB.

In-orbit conjunctions

A list of the most updated potential collisions computed for object FENGYUN 1C DEB.

Target Orbit TCA Probability of collision Miss distance Type
METEOR 1-17 DEB LEO 2025-08-29 06:35:38 0.000645166 59.0 (m) DEBRIS
SL-16 DEB LEO 2024-08-31 05:13:53 0.000372477 103.0 (m) DEBRIS

Associated space launch

Chinese polar orbiting meteorological satellite

FENGYUN 1C DEB was lifted into orbit during the mission ‘Long March 4B | Feng Yun 1C’, on board a Long March 4B space rocket.

The launch took place on May 10, 1999, 1:33 a.m. from Launch Complex 7.

For more information about the launch, click the button.

Launch to space Long March 4B | Feng Yun 1C
Long March 4B | Feng Yun 1C

Agency: N/A

Status: Launch Successful

Launch date: May 10, 1999, 1:33 a.m. UTC

Rocket: Long March 4B

Launch pad: Launch Complex 7

Location: Taiyuan Satellite Launch Center, People's Republic of China

...

Latest news about this satellite

There are no fresh news available about this satellite. Check back as we update our databases every day.


Newsletter sign-up

Weekly statistics, charts and insights to help you stay on top of the space industry.